Dewpoint
60 60 60 60 60 59 59 59 60 61 53 50 50 49 50 50 51 51 51 51 52 52 53 53 53 53 53 54 55 55 55 55 55 54 54 53 53 53 53 54 54 54 54 54 54 53 53 53 52 52 51 51 51 50 50 50 50 50 49 49 49 48 49 48 48 47 47 46 46 45 44 42 40 38 36 36 35 35 35 34 34 34 34 33 32 32 32 32 32 32 32 32 32 34 34 32 30 30 30 29 28 27 25
59 61 60 59 59 60 60 60 60 59 52 50 50 50 50 51 51 51 51 52 52 53 53 52 52 53 54 55 55 54 54 54 53 53 52 52 52 52 53 54 54 54 53 53 53 52 52 51 51 50 50 50 50 50 50 50 49 49 49 49 48 48 48 47 47 47 48 47 46 45 42 40 38 36 35 34 34 34 35 36 36 35 34 33 33 32 32 32 32 33 32 32 32 33 32 32 31 27 27 27 27 26 25
59 60 59 59 60 60 59 60 59 55 51 50 50 51 51 51 51 51 52 52 53 53 53 52 53 54 55 55 55 54 53 53 52 52 52 52 52 52 53 53 53 53 52 52 51 51 50 50 49 49 49 49 49 49 49 49 48 48 48 48 47 47 46 46 46 46 47 45 42 41 38 36 34 33 33 33 33 32 34 34 34 34 33 33 34 33 34 33 33 34 34 34 33 32 31 31 31 28 26 25 26 26 25
60 60 60 60 60 60 59 59 59 54 51 50 50 50 51 51 51 51 52 53 53 53 53 53 53 54 55 55 54 54 54 54 53 53 53 52 52 53 53 52 52 52 52 51 50 50 49 48 48 47 48 48 49 48 47 47 47 48 48 48 48 46 46 45 44 43 41 39 37 37 35 34 32 32 32 32 32 32 32 32 33 33 35 35 35 34 34 34 34 34 33 33 32 30 29 29 30 29 27 27 27 26 27
59 58 59 59 59 59 58 57 55 54 51 50 50 50 50 51 51 52 52 52 52 52 53 53 54 55 55 55 54 54 54 54 54 53 53 53 53 53 53 53 53 52 51 50 50 50 49 48 47 47 48 48 48 48 48 48 48 49 50 49 48 46 44 41 40 38 37 36 35 35 33 32 32 31 31 31 31 32 32 31 31 34 33 33 33 33 34 33 33 33 32 32 32 30 28 28 30 32 31 30 29 28 28
57 56 57 58 58 57 56 55 55 53 51 50 50 50 50 51 51 52 52 52 52 52 53 53 54 54 55 55 54 54 55 54 54 54 53 53 53 53 53 53 52 51 51 50 49 48 48 48 48 48 47 47 47 47 48 48 49 49 48 47 46 43 41 37 35 34 34 34 34 33 32 31 30 31 30 30 31 31 31 30 30 31 31 31 31 31 32 32 32 32 31 30 30 30 29 29 29 30 31 31 30 28 27
55 54 55 56 56 56 55 54 53 51 50 50 50 51 51 51 51 51 52 52 52 52 53 54 54 54 55 55 55 55 55 54 54 54 54 54 54 53 53 52 52 52 51 50 49 48 47 47 47 47 47 47 47 48 48 48 48 47 45 42 40 38 37 34 32 32 33 34 33 32 32 31 30 29 29 30 30 30 30 30 30 31 30 29 29 30 29 30 30 30 29 29 30 29 31 30 28 27 28 28 28 27 28
53 53 53 54 55 54 53 53 52 50 50 50 50 51 52 52 51 51 52 53 53 53 54 55 55 54 55 55 55 55 55 54 54 54 54 54 53 53 52 52 51 51 50 49 48 48 47 47 47 47 47 47 47 47 47 46 45 43 40 38 37 36 35 33 32 32 33 33 32 31 30 29 29 28 29 30 30 30 28 29 30 31 29 28 28 28 27 27 28 28 28 29 29 28 29 29 29 25 26 26 26 25 26
50 50 51 52 53 52 52 52 51 50 50 50 50 51 52 52 52 52 53 54 54 54 55 55 54 54 55 55 55 55 54 54 54 55 54 53 52 52 51 50 50 50 49 48 47 47 46 46 46 46 45 46 46 46 45 44 43 41 39 37 35 35 34 33 33 33 34 34 32 30 28 28 28 28 28 28 28 28 29 29 29 30 29 28 27 26 26 27 28 27 28 29 28 25 27 28 28 27 25 25 24 24 24
47 48 49 50 51 51 52 51 50 50 50 50 50 51 52 52 53 53 54 55 55 55 55 55 55 55 55 55 55 54 54 54 54 54 54 53 52 51 50 50 49 48 48 47 47 46 46 45 45 44 44 44 44 44 42 41 41 39 37 35 34 34 34 34 33 33 34 34 32 31 29 28 27 27 28 28 29 28 30 30 29 30 29 28 27 27 28 28 29 28 28 28 27 27 27 28 28 28 26 25 23 22 21
46 47 48 49 50 50 50 51 51 51 52 51 51 51 52 52 53 54 55 55 55 56 56 56 55 55 55 55 55 54 54 54 54 54 53 52 51 51 50 50 49 48 48 47 46 46 45 45 44 44 43 43 42 41 40 40 39 38 36 34 33 33 34 33 33 34 34 34 33 32 31 29 28 28 29 29 29 30 30 30 30 29 30 29 28 28 28 28 28 28 27 28 28 28 28 28 28 28 27 26 23 20 19
46 46 47 47 48 48 49 50 51 51 53 53 52 52 52 52 53 53 54 55 56 56 56 56 56 56 55 55 54 54 54 54 54 53 52 51 51 50 50 50 50 49 49 48 47 46 45 45 44 44 44 43 41 40 40 40 39 37 36 35 34 33 33 33 32 33 34 34 34 33 31 30 28 27 29 30 30 29 30 30 30 30 31 30 28 28 28 27 27 27 26 27 28 30 28 28 27 28 27 26 23 19 18
46 46 46 46 47 47 48 50 50 51 53 53 53 53 53 53 53 53 54 55 56 56 56 56 56 56 55 55 54 54 53 53 53 52 51 50 50 50 50 50 50 50 49 49 47 46 45 44 44 43 42 42 41 40 39 38 37 35 34 33 33 32 32 32 33 33 34 35 34 34 32 30 29 27 28 29 30 30 30 30 30 30 31 30 28 28 28 28 28 27 27 28 29 30 29 28 28 28 27 26 24 21 19
45 46 46 46 46 47 48 50 50 51 53 54 54 53 53 53 53 53 54 55 55 55 56 56 56 55 55 55 54 54 53 53 52 51 51 50 50 50 50 50 50 50 49 49 48 46 45 44 43 42 42 41 41 39 38 37 35 34 33 32 32 32 31 32 33 33 34 34 34 33 32 32 30 29 28 29 31 30 30 30 30 31 32 30 28 28 29 29 28 28 27 28 29 30 30 29 28 28 28 27 26 24 22
44 45 46 46 46 46 48 49 50 51 52 53 54 53 54 54 53 53 54 55 55 55 55 56 56 55 55 55 54 54 53 53 52 51 51 50 50 50 50 50 50 50 49 48 48 47 46 44 43 42 42 42 41 38 37 36 34 33 32 32 31 31 31 32 32 33 33 33 34 33 32 32 32 31 29 29 29 29 30 30 30 31 32 31 29 30 30 29 29 28 28 28 29 29 30 29 28 28 27 28 28 28 25
42 43 44 45 45 46 47 48 50 51 52 52 53 53 54 54 54 54 54 55 55 55 55 55 55 55 55 55 54 54 53 52 52 51 51 51 50 50 50 50 50 50 49 49 48 47 46 44 43 42 42 41 39 37 36 35 33 32 32 31 31 31 32 32 33 32 32 33 33 34 33 32 32 31 30 28 28 28 28 29 30 31 32 31 30 31 30 30 30 30 30 29 29 29 29 28 28 28 27 27 28 28 27
41 41 42 43 44 45 46 48 49 50 51 52 52 53 53 54 54 54 55 55 55 55 55 55 55 55 55 54 54 53 53 52 52 51 51 51 50 50 50 51 50 51 50 49 48 46 45 43 42 41 40 39 38 37 36 34 32 32 31 31 31 31 32 32 33 32 32 33 33 34 33 32 32 31 30 29 28 28 28 29 30 32 32 32 31 31 31 32 32 31 31 31 30 29 29 29 29 28 26 25 26 27 27
40 40 41 42 44 45 46 47 48 49 50 51 52 52 53 53 54 54 54 55 55 55 55 55 55 55 55 54 54 53 52 52 52 52 51 50 50 50 51 51 51 51 51 50 48 46 44 42 41 40 39 38 37 37 36 34 32 31 31 31 31 31 32 32 33 33 33 33 33 34 33 32 31 30 29 28 29 29 29 30 31 33 33 32 32 32 32 32 31 31 31 31 31 30 29 28 28 28 26 25 25 26 26
40 40 41 42 44 45 46 46 47 49 50 50 51 52 52 53 53 54 54 54 55 55 55 55 55 55 55 54 54 52 52 52 52 52 51 50 50 50 50 51 51 52 52 50 48 46 43 41 40 39 37 37 36 35 34 33 32 31 31 31 31 32 32 33 33 33 33 33 33 33 32 31 30 28 28 28 29 29 29 29 30 32 32 32 32 32 32 31 31 30 30 30 30 30 28 28 28 28 27 26 25 25 24
39 41 41 43 44 45 46 46 47 48 49 50 51 51 52 52 53 53 54 54 54 55 55 55 55 55 55 54 54 53 52 52 52 52 51 51 50 50 51 51 52 52 52 51 49 46 43 41 39 38 37 36 35 34 33 32 31 31 31 32 32 32 32 33 33 33 33 33 33 33 32 31 29 28 28 28 28 29 30 30 30 30 31 32 32 32 31 31 31 30 30 29 29 28 28 27 28 28 27 26 25 24 23
38 40 41 41 43 44 45 46 46 48 49 49 50 51 51 52 52 52 53 54 54 55 55 55 55 55 55 54 54 53 52 52 52 52 51 51 50 50 50 51 52 52 52 51 49 47 44 41 39 37 37 36 35 34 33 32 31 30 32 32 32 32 32 33 33 33 33 33 33 33 32 31 30 28 28 29 30 31 31 30 30 29 31 32 32 32 32 32 32 31 30 29 28 28 27 27 28 28 27 26 25 24 23
37 38 39 40 41 42 43 44 45 46 48 49 49 50 51 51 52 52 52 53 54 55 55 55 55 55 55 55 54 53 52 52 52 52 51 51 50 50 50 51 52 52 52 50 48 46 44 42 39 37 37 36 35 35 34 32 31 31 31 32 32 32 32 32 33 33 33 33 32 32 32 32 30 28 28 30 31 32 31 30 30 29 32 32 32 32 32 32 32 31 29 28 28 28 27 27 27 27 26 26 26 25 24
37 37 38 39 40 41 42 43 44 46 46 48 49 50 50 51 52 51 52 53 54 55 55 55 55 55 55 55 54 53 52 52 52 51 51 51 50 50 50 51 51 52 52 50 47 46 45 43 41 38 37 36 35 35 34 32 32 31 31 31 32 32 32 32 32 32 33 32 32 32 32 32 31 28 29 30 31 32 30 29 29 29 32 33 33 33 33 33 32 30 29 28 28 28 28 27 27 27 26 26 26 26 26
37 38 38 40 41 42 42 43 44 45 46 48 49 50 50 51 51 51 52 53 54 55 55 54 54 55 55 55 54 53 52 52 51 51 51 51 50 50 50 51 51 52 52 51 49 48 46 43 41 39 37 36 35 35 34 33 32 32 32 32 32 32 32 32 32 32 32 33 33 33 32 32 31 29 31 32 32 32 30 29 29 29 31 33 35 35 34 33 31 29 28 28 28 28 28 28 28 28 27 27 27 27 27
38 39 40 41 42 43 43 44 44 46 47 48 49 50 51 51 52 52 53 53 54 55 55 54 54 54 55 55 54 53 52 52 51 51 51 51 50 50 50 50 51 52 52 51 50 49 46 45 42 40 39 38 37 35 34 33 33 32 32 32 33 33 33 33 33 33 33 34 33 33 33 32 32 31 32 32 32 32 31 30 30 31 31 33 34 32 32 32 30 28 28 28 28 28 28 28 28 28 28 28 28 27 26
39 40 41 42 43 44 44 45 45 46 47 48 49 50 50 51 52 52 53 53 54 54 54 54 54 54 54 54 54 54 52 51 51 51 51 51 50 50 50 50 51 51 52 51 50 48 46 45 43 41 38 37 37 36 34 33 33 32 32 32 33 34 34 34 34 34 34 34 33 34 34 33 32 32 33 32 31 31 31 30 30 32 32 32 32 32 32 31 30 28 28 28 28 29 29 29 29 28 28 28 28 26 26
39 40 41 42 43 44 44 45 46 46 48 49 50 50 51 51 52 53 53 53 54 54 54 54 54 54 54 54 54 54 52 51 51 51 51 51 51 50 50 50 51 51 52 51 49 46 45 44 43 41 39 38 37 37 36 34 33 33 32 32 33 33 34 34 34 34 34 34 34 35 34 34 33 33 32 32 32 31 31 30 30 31 32 32 31 30 31 30 29 29 28 28 28 28 29 29 28 27 27 27 27 26 26
39 40 41 41 42 43 44 44 45 46 47 48 50 51 52 52 52 53 52 53 53 53 54 54 54 54 54 54 54 54 52 52 51 51 52 52 52 51 50 50 51 51 51 50 49 47 46 45 44 41 40 38 37 37 36 35 34 34 33 33 33 33 33 34 34 34 34 34 35 36 35 34 34 33 32 32 32 32 32 31 31 32 32 31 30 31 30 30 30 30 28 28 27 27 28 28 28 28 28 28 27 26 26
38 39 40 41 41 42 43 44 45 46 46 47 49 50 51 51 51 52 52 53 53 54 54 54 53 54 54 54 54 54 53 52 51 51 52 52 52 51 51 51 51 51 51 50 49 48 46 45 44 42 40 39 38 37 36 35 35 35 34 34 34 34 34 34 35 35 34 34 35 36 36 35 34 32 32 32 32 32 32 32 32 32 32 32 32 32 31 30 31 30 29 28 28 28 28 28 28 28 28 28 28 28 27
38 39 40 40 41 41 42 43 44 45 46 47 48 49 50 50 50 51 52 53 53 54 54 53 53 53 53 53 54 54 53 53 52 52 51 52 51 51 51 51 51 51 51 50 49 48 47 46 45 44 42 40 39 37 36 36 35 34 34 34 34 33 34 35 36 36 35 35 36 36 36 35 34 32 31 32 33 32 32 32 32 32 32 32 32 32 32 32 32 31 28 28 28 29 29 28 28 28 28 28 28 28 28
38 39 39 40 40 41 41 42 43 44 45 46 47 48 50 50 50 51 52 52 53 53 53 53 53 53 53 53 53 54 53 53 52 51 52 52 52 52 51 50 50 50 50 50 49 49 48 47 46 44 43 41 39 37 37 36 35 35 35 35 34 34 35 36 37 36 35 34 34 37 36 35 34 33 32 32 32 32 33 33 33 33 32 32 32 32 32 33 33 31 28 28 28 29 27 28 28 28 28 28 27 28 28
37 38 39 39 40 40 41 42 44 44 45 45 46 48 49 50 50 51 51 52 52 53 53 53 52 53 53 53 53 53 53 53 53 51 52 52 52 51 51 50 50 50 50 50 49 48 47 46 45 45 43 41 40 38 38 37 37 36 36 36 36 36 36 37 37 35 35 35 35 36 35 34 33 33 33 33 33 32 33 32 32 32 32 32 32 32 32 32 32 31 28 27 27 28 28 28 28 29 29 28 28 28 28
37 37 38 39 39 40 41 42 43 43 44 45 46 46 48 49 50 51 51 51 51 52 52 52 52 52 53 53 53 53 53 53 52 51 52 52 51 51 51 50 50 50 49 49 48 47 46 46 45 44 43 42 40 38 37 38 38 37 37 37 37 37 37 37 36 35 36 36 35 35 33 32 32 32 32 33 33 33 33 32 31 31 31 30 30 31 31 32 31 31 28 27 28 28 28 28 29 29 29 29 29 28 28
37 37 37 38 39 40 41 41 42 43 44 44 45 46 47 48 49 50 50 50 50 51 51 51 51 51 52 52 53 53 53 53 53 52 52 52 51 51 50 50 50 50 49 48 48 47 46 46 45 43 43 43 42 40 38 39 40 41 39 38 37 37 37 36 36 35 36 36 35 34 32 32 31 30 31 32 33 33 32 31 31 31 30 30 30 31 31 31 30 30 28 28 28 28 28 28 29 30 29 30 30 29 29
37 37 37 37 38 39 40 41 42 43 43 44 45 45 46 48 49 50 50 50 50 51 51 51 51 51 52 52 52 53 53 53 53 53 52 52 52 51 50 50 50 50 49 48 48 47 47 46 45 44 43 44 45 44 42 42 41 39 40 40 38 37 37 37 37 35 35 35 34 34 32 31 30 30 30 30 31 31 30 29 29 29 29 29 29 30 31 31 30 31 29 28 28 29 29 29 30 31 30 30 31 30 30
35 36 36 37 37 38 39 41 41 42 43 44 45 45 46 48 49 49 50 50 50 50 51 51 51 51 51 52 52 52 53 53 53 53 52 52 52 51 51 50 50 49 49 48 48 47 47 46 45 45 43 43 44 46 47 46 42 39 41 41 39 37 37 37 37 35 35 34 33 32 31 30 30 30 30 30 29 30 29 29 28 28 28 28 28 29 30 30 30 30 29 29 28 30 30 30 31 31 31 31 31 32 32
34 34 35 36 37 37 39 40 41 42 43 44 44 45 46 47 48 49 49 50 50 50 50 51 51 51 51 51 52 52 53 53 53 53 53 52 52 51 51 50 50 50 49 48 47 47 46 46 45 45 43 42 42 45 46 46 43 40 41 41 39 38 38 37 37 36 35 33 32 31 30 30 29 30 30 29 29 29 29 28 28 28 27 27 28 28 29 30 29 29 29 29 29 30 31 31 32 32 31 31 32 32 32
34 34 34 35 36 37 38 40 41 42 43 44 44 45 46 46 47 48 49 50 50 50 50 51 51 51 51 51 52 52 52 53 53 53 53 52 52 51 51 51 50 50 49 48 47 47 46 46 46 45 43 42 41 42 42 41 41 40 41 40 39 38 38 37 36 35 34 33 32 30 30 30 30 30 29 29 29 29 28 28 27 27 27 27 28 28 30 30 29 29 29 28 28 29 31 32 32 32 31 31 31 31 31
35 35 35 35 36 37 39 41 41 43 43 44 45 45 46 47 47 48 49 49 50 50 50 51 51 51 51 51 52 52 52 53 53 53 53 53 52 51 51 51 51 50 50 49 48 47 46 46 45 44 43 42 41 41 41 39 39 39 40 41 42 39 37 37 36 35 33 32 31 30 30 29 29 29 29 29 29 28 28 28 27 27 27 27 28 29 30 30 29 29 29 28 29 29 31 32 33 33 32 31 30 30 31
35 35 35 35 36 37 40 41 42 43 44 45 45 46 46 47 47 48 49 49 50 50 50 51 51 51 51 51 52 52 52 53 53 53 53 53 52 52 52 51 51 50 50 49 48 48 46 46 45 44 43 42 41 42 41 40 38 37 40 43 45 41 38 36 36 34 33 32 31 30 29 29 29 29 29 28 28 28 28 28 27 27 27 27 28 29 30 31 30 29 29 29 29 30 30 31 32 32 32 32 31 31 31
35 35 35 36 36 37 38 39 41 43 44 45 46 46 46 47 47 48 49 49 50 50 50 51 51 51 51 51 52 52 52 52 53 53 53 53 53 52 52 52 51 50 50 49 48 47 46 45 44 44 43 42 41 42 41 40 39 38 40 44 46 42 38 36 35 33 32 32 31 30 30 29 29 29 29 28 28 28 28 27 27 27 27 27 28 28 30 31 32 32 32 31 30 30 30 30 30 31 32 32 33 32 32
36 35 35 35 35 35 36 37 40 42 44 45 45 46 46 47 47 48 49 49 50 50 50 50 51 51 51 51 52 52 52 52 52 53 53 53 53 52 52 52 51 50 50 49 48 47 46 45 44 43 43 42 41 41 41 41 40 39 41 43 43 41 37 36 34 33 32 32 32 31 30 30 30 29 29 28 28 28 27 27 27 27 27 27 27 27 28 29 31 33 34 33 31 31 30 29 29 30 32 34 34 34 32
36 36 36 35 35 35 36 37 39 42 43 44 45 46 46 47 47 48 49 49 50 50 50 50 51 51 51 52 52 52 52 52 52 53 53 53 53 52 52 51 51 50 50 49 48 47 46 45 44 43 43 42 42 41 41 41 41 40 40 41 42 41 38 36 34 33 32 32 32 32 31 31 30 30 29 28 28 28 27 27 27 27 27 28 27 27 28 28 29 30 32 32 32 32 32 31 31 32 35 37 36 35 33
35 35 35 36 37 37 36 37 39 41 43 44 45 46 46 47 47 48 49 49 50 50 50 50 51 51 51 52 52 52 52 52 52 52 53 53 53 53 52 52 51 50 50 49 48 47 46 45 44 43 43 43 42 42 41 41 41 40 39 39 40 40 38 37 35 34 33 32 32 32 32 31 31 31 29 29 28 28 28 27 27 27 27 28 27 27 28 28 29 30 32 33 34 33 33 33 35 37 38 38 37 36 34
35 35 34 35 36 36 36 36 38 41 43 44 45 46 46 47 47 48 49 49 50 50 50 50 51 51 51 52 52 52 52 52 52 52 53 53 53 53 52 52 51 50 50 49 48 47 46 45 44 43 43 43 43 42 41 41 41 40 39 38 38 38 38 38 37 35 33 33 32 32 32 31 31 31 30 29 28 28 28 28 27 27 27 27 27 27 28 28 30 32 34 36 36 34 34 36 38 40 40 39 38 37 35
36 36 35 35 35 35 36 37 38 40 42 44 45 46 46 47 47 48 48 49 49 50 50 50 51 51 52 52 52 52 52 52 52 52 52 53 53 53 52 52 51 50 50 49 49 48 47 46 45 44 44 43 43 42 41 41 40 40 38 37 37 37 38 38 37 36 34 33 33 32 32 31 31 32 31 30 29 29 28 28 27 26 26 26 27 27 28 30 32 36 37 37 36 35 37 38 40 41 41 40 39 37 36
36 36 36 35 35 36 37 37 39 40 42 44 45 46 46 47 47 47 48 49 49 50 50 50 51 51 52 52 52 52 52 52 52 52 52 52 52 52 52 52 51 51 50 50 49 48 47 46 46 45 45 44 43 42 41 41 40 39 38 37 37 37 38 39 39 38 37 35 34 33 32 32 32 33 32 31 30 29 28 28 28 28 26 25 25 26 30 33 37 39 39 37 37 36 37 38 39 41 41 40 39 37 36
36 36 36 36 35 36 37 38 39 40 41 43 44 46 46 46 47 47 48 48 49 50 50 50 51 51 52 52 52 52 52 52 52 52 52 52 52 52 52 52 51 51 50 50 49 49 48 47 46 46 45 44 43 42 42 41 40 38 37 37 38 38 37 38 39 39 38 37 35 34 33 33 32 33 32 31 30 30 28 28 28 28 26 25 27 31 36 38 40 40 39 37 36 36 36 37 39 41 41 40 38 37 36
36 36 37 37 36 36 37 38 39 40 41 42 43 45 46 46 46 47 47 48 49 49 50 50 50 51 51 52 52 52 52 52 52 52 53 52 52 52 52 52 52 51 51 50 50 49 49 48 47 46 46 45 44 43 42 41 40 38 37 37 37 37 37 37 37 37 38 39 38 35 34 32 32 32 31 30 29 29 28 28 27 27 30 34 37 40 41 41 41 40 38 36 35 35 35 37 39 41 41 39 38 37 36
37 37 37 37 37 37 38 38 39 40 42 43 44 44 46 46 46 47 47 48 48 49 49 50 50 50 51 52 52 52 52 52 53 53 53 52 52 52 52 51 51 51 51 50 50 50 49 48 48 47 46 45 44 43 43 41 40 38 37 37 37 37 37 37 37 37 38 40 40 38 35 34 33 32 30 30 30 31 31 32 33 36 39 41 41 41 40 40 39 38 37 35 34 34 36 37 40 41 41 40 39 38 37
37 37 38 39 39 40 40 40 41 42 44 46 46 46 46 46 46 47 47 48 48 48 49 49 50 50 51 51 52 52 52 52 52 53 53 52 52 52 51 51 51 51 51 50 50 50 49 49 48 47 46 46 45 44 43 42 40 39 38 37 37 37 38 38 38 38 37 38 38 38 37 36 35 34 34 34 35 36 36 37 38 40 40 41 40 40 39 38 37 37 36 35 35 36 36 37 39 40 40 40 39 39 38
37 38 39 40 41 41 41 42 43 43 44 46 46 47 46 46 46 47 47 48 48 48 49 49 50 50 50 51 51 52 52 52 52 52 52 52 52 51 51 50 50 50 50 50 50 50 49 49 48 48 47 46 45 44 43 42 41 40 39 39 38 38 38 38 39 40 39 39 38 39 38 37 37 38 38 38 38 37 37 37 39 39 39 39 39 38 37 37 37 37 36 36 36 36 37 37 38 39 39 39 39 39 38
37 38 39 40 41 42 44 45 44 43 44 45 46 46 46 46 46 47 47 48 48 48 49 49 49 50 50 51 51 51 51 52 52 52 52 52 51 51 50 50 50 50 49 49 49 49 49 49 48 48 47 46 46 45 44 43 42 41 41 40 39 40 40 41 41 41 41 41 41 41 40 38 38 39 39 39 38 37 37 37 38 38 38 39 39 38 37 36 36 37 37 36 36 36 37 38 39 39 39 38 38 38 37
37 38 39 40 41 43 44 44 44 44 45 46 46 46 46 46 47 47 47 48 48 48 49 49 49 50 50 50 51 50 51 51 51 52 52 51 51 51 50 50 49 49 49 49 49 49 49 49 49 48 47 47 46 46 46 45 44 43 42 42 42 42 42 41 41 41 41 42 42 41 39 38 38 39 39 39 39 38 37 38 38 38 38 39 38 37 37 36 37 37 37 37 37 37 37 38 38 38 38 37 37 37 37
37 38 39 40 41 42 42 42 43 44 45 45 46 46 46 46 47 47 47 47 48 48 49 49 49 50 50 50 50 50 50 51 51 51 51 51 51 51 50 50 49 49 49 49 48 48 48 49 49 48 48 48 48 47 47 46 45 45 44 43 43 42 41 41 41 41 41 41 40 39 39 39 39 39 40 41 41 39 39 38 39 39 40 40 39 37 36 37 37 37 37 37 37 37 37 38 38 37 37 37 37 37 36
37 38 38 39 40 41 41 42 43 43 44 45 45 46 47 47 47 47 47 47 48 48 48 49 49 49 49 50 50 50 50 50 51 51 50 50 51 50 50 50 49 49 48 48 48 48 48 49 49 49 49 48 47 47 46 45 45 44 43 42 41 40 40 39 39 40 40 40 40 40 40 40 39 39 41 42 42 41 41 41 41 41 41 40 38 36 36 37 37 37 37 37 37 37 37 37 37 37 37 37 37 37 37
36 37 38 39 40 41 41 42 42 43 44 45 46 46 47 47 47 46 46 47 48 48 48 48 49 49 49 49 49 49 50 50 50 50 50 50 50 50 50 50 49 48 48 48 48 48 48 48 48 47 46 45 45 44 43 42 41 41 41 40 39 39 39 39 40 40 41 41 41 41 41 41 41 41 42 43 43 43 43 42 42 41 41 39 37 36 36 36 37 37 37 37 37 37 37 37 38 37 37 37 37 37 37
36 37 37 37 38 40 40 41 41 43 44 45 46 46 46 47 47 46 46 47 47 48 48 48 48 48 49 49 49 49 49 49 50 50 50 50 50 50 50 49 49 48 48 47 47 47 47 46 45 43 42 42 42 41 40 39 39 39 39 39 39 38 39 40 40 41 41 41 41 41 41 41 41 41 42 42 43 43 43 43 42 41 40 38 37 36 36 36 37 37 37 37 37 37 37 37 37 37 37 37 38 38 37
35 35 35 35 36 37 38 40 41 43 43 44 45 45 45 46 46 46 46 46 46 47 47 47 47 47 48 48 49 49 49 49 49 49 49 49 49 49 49 49 48 48 47 47 46 46 45 43 41 41 41 42 42 41 40 39 39 39 39 39 38 39 40 40 41 41 41 41 41 41 41 40 40 39 40 41 42 42 42 41 41 41 38 37 36 36 36 37 37 37 37 37 37 37 37 37 37 38 38 38 38 38 38